SBI6216 UHPP-UHWW

Flight info

Callsign SBI6216
Flight time N/A
Altitude 36000
Route SAMIK4L SAMIK T577 UB P176 NAMUL P175 AKOLA T575 TD B355 BG/K0759F220 G714 DAGES DAGES2M
Aircraft A320/M-SDE3FGHIRWY/LB1

Departure

Time 2026-05-07 05:12
Airport Yelizovo Airport (UHPP)

Arrival

Time N/A
Airport Vladivostok International Airport (UHWW)
Time Latitude Longitude Altitude Speed Heading
2026-05-07 04:48 53.18249 158.43369 123 ft 0 kts 219°
2026-05-07 05:01 53.18261 158.43384 120 ft 2 kts 218°
2026-05-07 05:01 53.18274 158.43401 120 ft 2 kts 216°
2026-05-07 05:01 53.18287 158.43417 122 ft 2 kts 213°
2026-05-07 05:02 53.18301 158.43431 120 ft 2 kts 208°
2026-05-07 05:02 53.18316 158.43443 119 ft 2 kts 189°
2026-05-07 05:02 53.18332 158.43439 119 ft 2 kts 133°
2026-05-07 05:02 53.18337 158.43430 118 ft 0 kts 124°
2026-05-07 05:05 53.18326 158.43457 122 ft 7 kts 124°
2026-05-07 05:06 53.18284 158.43529 122 ft 8 kts 141°
2026-05-07 05:06 53.18238 158.43592 123 ft 8 kts 126°
2026-05-07 05:06 53.18246 158.43677 123 ft 8 kts 68°
2026-05-07 05:06 53.18273 158.43792 123 ft 15 kts 68°
2026-05-07 05:07 53.18302 158.43903 119 ft 16 kts 68°
2026-05-07 05:07 53.18310 158.44062 125 ft 12 kts 110°
2026-05-07 05:07 53.18228 158.44165 123 ft 20 kts 156°
2026-05-07 05:07 53.18072 158.44276 124 ft 28 kts 158°
2026-05-07 05:08 53.17875 158.44412 122 ft 32 kts 156°
2026-05-07 05:08 53.17661 158.44561 128 ft 34 kts 156°
2026-05-07 05:08 53.17442 158.44711 127 ft 35 kts 158°
2026-05-07 05:08 53.17214 158.44871 127 ft 36 kts 158°
2026-05-07 05:09 53.16977 158.45034 123 ft 36 kts 158°
2026-05-07 05:09 53.16751 158.45190 123 ft 34 kts 157°
2026-05-07 05:09 53.16535 158.45340 121 ft 33 kts 157°
2026-05-07 05:09 53.16324 158.45486 123 ft 32 kts 159°
2026-05-07 05:10 53.16118 158.45628 124 ft 32 kts 155°
2026-05-07 05:10 53.15907 158.45771 126 ft 33 kts 159°
2026-05-07 05:10 53.15706 158.45914 126 ft 31 kts 156°
2026-05-07 05:10 53.15590 158.45951 125 ft 8 kts 144°
2026-05-07 05:11 53.15594 158.45992 125 ft 1 kts 35°
2026-05-07 05:11 53.15604 158.45988 124 ft 4 kts 346°
2026-05-07 05:11 53.15711 158.45912 124 ft 46 kts 337°
2026-05-07 05:11 53.16231 158.45551 126 ft 113 kts 337°
2026-05-07 05:12 53.17117 158.44926 126 ft 160 kts 334°
2026-05-07 05:12 53.18151 158.44155 640 ft 162 kts 333°
2026-05-07 05:12 53.19183 158.43422 1318 ft 161 kts 333°
2026-05-07 05:12 53.20198 158.42722 1944 ft 156 kts 332°
2026-05-07 05:13 53.21191 158.42041 2578 ft 152 kts 330°
2026-05-07 05:13 53.22174 158.41367 3115 ft 153 kts 331°
2026-05-07 05:13 53.23161 158.40683 3513 ft 162 kts 330°
2026-05-07 05:13 53.24248 158.39926 3762 ft 176 kts 332°
2026-05-07 05:14 53.25430 158.39106 4014 ft 191 kts 332°
2026-05-07 05:14 53.26728 158.38204 4233 ft 214 kts 333°
2026-05-07 05:14 53.28158 158.37211 4688 ft 231 kts 333°
2026-05-07 05:14 53.29696 158.36144 5215 ft 247 kts 334°
2026-05-07 05:15 53.31310 158.35028 5983 ft 253 kts 334°
2026-05-07 05:15 53.32945 158.33900 6835 ft 255 kts 334°
2026-05-07 05:15 53.34594 158.32760 7671 ft 258 kts 334°
2026-05-07 05:15 53.36159 158.31317 8530 ft 256 kts 316°
2026-05-07 05:16 53.37279 158.29040 9400 ft 255 kts 296°
2026-05-07 05:16 53.37804 158.26213 10147 ft 258 kts 276°
2026-05-07 05:16 53.37654 158.23211 10910 ft 263 kts 256°
2026-05-07 05:16 53.36807 158.20394 11426 ft 283 kts 236°
2026-05-07 05:17 53.35481 158.17873 11808 ft 301 kts 232°
2026-05-07 05:17 53.34030 158.15219 12153 ft 318 kts 232°
2026-05-07 05:17 53.32490 158.12427 12463 ft 334 kts 231°
2026-05-07 05:17 53.30872 158.09502 12742 ft 351 kts 231°
2026-05-07 05:18 53.29183 158.06451 13136 ft 362 kts 231°
2026-05-07 05:18 53.27466 158.03348 13730 ft 366 kts 231°
2026-05-07 05:18 53.25736 158.00217 14315 ft 369 kts 231°
2026-05-07 05:18 53.23989 157.97050 14882 ft 372 kts 231°
2026-05-07 05:19 53.22234 157.93860 15425 ft 375 kts 231°
2026-05-07 05:19 53.20464 157.90636 15950 ft 378 kts 231°
2026-05-07 05:19 53.18676 157.87384 16437 ft 382 kts 230°
2026-05-07 05:19 53.16866 157.84104 16953 ft 385 kts 230°
2026-05-07 05:20 53.15043 157.80810 17462 ft 389 kts 230°
2026-05-07 05:20 53.13228 157.77537 17973 ft 392 kts 230°
2026-05-07 05:20 53.11371 157.74194 18415 ft 394 kts 230°
2026-05-07 05:20 53.09502 157.70840 18856 ft 396 kts 230°
2026-05-07 05:21 53.07621 157.67474 19286 ft 398 kts 229°
2026-05-07 05:21 53.04267 157.60175 20130 ft 399 kts 243°
2026-05-07 05:21 53.03149 157.55955 20525 ft 400 kts 252°
2026-05-07 05:22 53.02395 157.51503 20923 ft 402 kts 256°
2026-05-07 05:22 53.01681 157.46997 21303 ft 405 kts 256°
2026-05-07 05:22 53.00955 157.42461 21681 ft 408 kts 255°
2026-05-07 05:22 53.00220 157.37899 22058 ft 411 kts 255°
2026-05-07 05:23 52.99477 157.33308 22419 ft 414 kts 255°
2026-05-07 05:23 52.98726 157.28682 22767 ft 417 kts 255°
2026-05-07 05:23 52.97968 157.24024 23123 ft 420 kts 255°
2026-05-07 05:23 52.97207 157.19392 23418 ft 423 kts 255°
2026-05-07 05:24 52.96431 157.14674 23719 ft 425 kts 255°
2026-05-07 05:24 52.95652 157.09932 24022 ft 427 kts 255°
2026-05-07 05:24 52.94871 157.05175 24329 ft 429 kts 255°
2026-05-07 05:24 52.94085 157.00397 24633 ft 430 kts 255°
2026-05-07 05:25 52.93292 156.95607 24950 ft 431 kts 255°
2026-05-07 05:25 52.92495 156.90814 25270 ft 432 kts 255°
2026-05-07 05:25 52.91695 156.86011 25594 ft 433 kts 255°
2026-05-07 05:25 52.90890 156.81196 25902 ft 434 kts 255°
2026-05-07 05:26 52.90085 156.76388 26271 ft 433 kts 255°
2026-05-07 05:26 52.89282 156.71598 26733 ft 430 kts 255°
2026-05-07 05:26 52.88484 156.66850 27220 ft 427 kts 255°
2026-05-07 05:26 52.87689 156.62137 27705 ft 424 kts 255°
2026-05-07 05:27 52.86895 156.57455 28176 ft 421 kts 255°
2026-05-07 05:27 52.86100 156.52801 28624 ft 419 kts 255°
2026-05-07 05:27 52.85318 156.48239 29049 ft 417 kts 255°
2026-05-07 05:27 52.84530 156.43638 29483 ft 415 kts 255°
2026-05-07 05:28 52.83745 156.39058 29880 ft 413 kts 255°
2026-05-07 05:28 52.82962 156.34502 30183 ft 411 kts 256°
2026-05-07 05:28 52.82185 156.29961 30468 ft 410 kts 256°
2026-05-07 05:28 52.81512 156.25385 30737 ft 409 kts 261°
2026-05-07 05:29 52.81072 156.20751 30998 ft 408 kts 262°
2026-05-07 05:29 52.80634 156.16125 31245 ft 408 kts 262°
2026-05-07 05:29 52.80194 156.11500 31489 ft 407 kts 262°
2026-05-07 05:29 52.79753 156.06881 31727 ft 407 kts 262°
2026-05-07 05:30 52.79311 156.02271 31963 ft 406 kts 262°
2026-05-07 05:30 52.78871 155.97668 32192 ft 406 kts 262°
2026-05-07 05:30 52.78428 155.93065 32411 ft 405 kts 262°
2026-05-07 05:30 52.77979 155.88472 32630 ft 405 kts 262°
2026-05-07 05:31 52.77530 155.83885 32841 ft 405 kts 262°
2026-05-07 05:31 52.77088 155.79363 33038 ft 404 kts 262°
2026-05-07 05:31 52.76640 155.74781 33242 ft 404 kts 262°
2026-05-07 05:31 52.76186 155.70206 33433 ft 404 kts 261°
2026-05-07 05:32 52.75725 155.65631 33627 ft 403 kts 261°
2026-05-07 05:32 52.74794 155.56491 33741 ft 404 kts 261°
2026-05-07 05:33 52.73863 155.47358 33734 ft 403 kts 261°
2026-05-07 05:33 52.72933 155.38235 33741 ft 403 kts 261°
2026-05-07 05:34 52.72001 155.29119 33736 ft 403 kts 261°
2026-05-07 05:34 52.71059 155.20069 33745 ft 403 kts 261°
2026-05-07 05:35 52.70095 155.10963 33760 ft 403 kts 261°
2026-05-07 05:35 52.69135 155.01863 33760 ft 403 kts 261°
2026-05-07 05:36 52.68177 154.92773 33763 ft 403 kts 261°
2026-05-07 05:36 52.67206 154.83691 33757 ft 403 kts 261°
2026-05-07 05:37 52.66221 154.74611 33760 ft 402 kts 260°
2026-05-07 05:37 52.65225 154.65548 33756 ft 402 kts 260°
2026-05-07 05:38 52.64237 154.56548 33751 ft 402 kts 260°
2026-05-07 05:38 52.62384 154.47872 33749 ft 405 kts 246°
2026-05-07 05:39 52.59915 154.39548 33748 ft 405 kts 246°
2026-05-07 05:39 52.57440 154.31240 33748 ft 404 kts 246°
2026-05-07 05:40 52.54966 154.22955 33751 ft 404 kts 246°
2026-05-07 05:40 52.52490 154.14684 33749 ft 403 kts 246°
2026-05-07 05:41 52.50021 154.06425 33749 ft 403 kts 246°
2026-05-07 05:41 52.47549 153.98180 33744 ft 402 kts 246°
2026-05-07 05:42 52.45083 153.90015 33745 ft 402 kts 246°
2026-05-07 05:42 52.42588 153.81818 33750 ft 402 kts 246°
2026-05-07 05:43 52.40092 153.73639 33752 ft 401 kts 246°
2026-05-07 05:43 52.37599 153.65474 33746 ft 401 kts 246°
2026-05-07 05:44 52.35117 153.57316 33745 ft 400 kts 246°
2026-05-07 05:44 52.32619 153.49187 33743 ft 400 kts 246°
2026-05-07 05:45 52.30115 153.41074 33743 ft 399 kts 246°
2026-05-07 05:45 52.27626 153.33033 33746 ft 399 kts 246°
2026-05-07 05:46 52.25119 153.24963 33748 ft 398 kts 246°
2026-05-07 05:46 52.22603 153.16909 33748 ft 398 kts 246°
2026-05-07 05:47 52.20099 153.08865 33749 ft 397 kts 246°
2026-05-07 05:47 52.17589 153.00845 33746 ft 397 kts 246°
2026-05-07 05:48 52.15071 152.92844 33748 ft 397 kts 246°
2026-05-07 05:48 52.12552 152.84861 33744 ft 396 kts 246°
2026-05-07 05:49 52.10025 152.76905 33745 ft 396 kts 246°
2026-05-07 05:49 52.07501 152.68958 33750 ft 395 kts 245°
2026-05-07 05:50 52.04990 152.61087 33748 ft 395 kts 245°
2026-05-07 05:50 52.02464 152.53185 33747 ft 394 kts 245°
2026-05-07 05:51 51.99939 152.45289 33749 ft 394 kts 245°
2026-05-07 05:51 51.97410 152.37428 33749 ft 393 kts 245°
2026-05-07 05:52 51.94877 152.29568 33747 ft 393 kts 245°
2026-05-07 05:52 51.92342 152.21739 33745 ft 392 kts 245°
2026-05-07 05:53 51.89797 152.13926 33752 ft 392 kts 245°
2026-05-07 05:53 51.87276 152.06186 33752 ft 391 kts 245°
2026-05-07 05:54 51.84739 151.98408 33749 ft 391 kts 245°
2026-05-07 05:54 51.82196 151.90641 33754 ft 390 kts 245°
2026-05-07 05:55 51.79650 151.82901 33748 ft 390 kts 245°
2026-05-07 05:55 51.77102 151.75182 33750 ft 389 kts 245°
2026-05-07 05:56 51.74552 151.67486 33747 ft 388 kts 245°
2026-05-07 05:56 51.72005 151.59809 33753 ft 388 kts 245°
2026-05-07 05:57 51.69478 151.52212 33754 ft 387 kts 245°
2026-05-07 05:57 51.66925 151.44581 33756 ft 386 kts 245°
2026-05-07 05:58 51.64375 151.36980 33758 ft 386 kts 245°
2026-05-07 05:58 51.61820 151.29383 33753 ft 386 kts 245°
2026-05-07 05:59 51.59269 151.21795 33755 ft 386 kts 245°
2026-05-07 05:59 51.56704 151.14222 33753 ft 386 kts 244°
2026-05-07 06:00 51.54139 151.06658 33753 ft 385 kts 244°
2026-05-07 06:00 51.51585 150.99158 33753 ft 385 kts 244°
2026-05-07 06:01 51.49012 150.91613 33755 ft 385 kts 244°
2026-05-07 06:01 51.46442 150.84086 33750 ft 384 kts 244°
2026-05-07 06:02 51.43873 150.76577 33755 ft 384 kts 244°
2026-05-07 06:02 51.41292 150.69089 33753 ft 384 kts 244°
2026-05-07 06:03 51.38703 150.61613 33757 ft 384 kts 244°
2026-05-07 06:03 51.36111 150.54146 33755 ft 384 kts 244°
2026-05-07 06:04 51.33525 150.46695 33756 ft 383 kts 244°
2026-05-07 06:04 51.30937 150.39251 33755 ft 383 kts 244°
2026-05-07 06:05 51.28360 150.31879 33753 ft 382 kts 244°
2026-05-07 06:05 51.25763 150.24476 33753 ft 382 kts 244°
2026-05-07 06:06 51.23169 150.17078 33758 ft 382 kts 244°
2026-05-07 06:06 51.20564 150.09700 33755 ft 381 kts 244°
2026-05-07 06:07 51.17963 150.02336 33757 ft 381 kts 244°
2026-05-07 06:07 51.16023 149.94557 33752 ft 378 kts 253°
2026-05-07 06:08 51.14369 149.86606 33752 ft 378 kts 253°
2026-05-07 06:08 51.12720 149.78720 33756 ft 378 kts 253°
2026-05-07 06:09 51.11042 149.70793 33755 ft 378 kts 253°
2026-05-07 06:09 51.09368 149.62879 33757 ft 378 kts 253°
2026-05-07 06:10 51.07694 149.54962 33756 ft 378 kts 253°
2026-05-07 06:10 51.06013 149.47047 33756 ft 378 kts 252°
2026-05-07 06:11 51.04327 149.39138 33757 ft 378 kts 253°
2026-05-07 06:11 51.02630 149.31236 33758 ft 378 kts 252°
2026-05-07 06:12 51.00936 149.23394 33756 ft 378 kts 252°
2026-05-07 06:12 50.99232 149.15500 33764 ft 378 kts 252°
2026-05-07 06:13 50.97525 149.07616 33758 ft 378 kts 252°
2026-05-07 06:13 50.95811 148.99741 33761 ft 378 kts 252°
2026-05-07 06:14 50.94084 148.91876 33762 ft 378 kts 252°
2026-05-07 06:14 50.92355 148.84019 33764 ft 378 kts 252°
2026-05-07 06:15 50.90627 148.76170 33764 ft 377 kts 252°
2026-05-07 06:15 50.88892 148.68325 33764 ft 377 kts 252°
2026-05-07 06:16 50.87443 148.61805 33764 ft 377 kts 252°
2026-05-07 06:16 50.85702 148.53976 33764 ft 377 kts 252°
2026-05-07 06:17 50.83954 148.46146 33763 ft 377 kts 252°
2026-05-07 06:17 50.82197 148.38324 33765 ft 377 kts 252°
2026-05-07 06:18 50.80431 148.30513 33765 ft 377 kts 252°
2026-05-07 06:18 50.78675 148.22763 33767 ft 377 kts 252°
2026-05-07 06:19 50.76907 148.14967 33766 ft 377 kts 252°
2026-05-07 06:19 50.75134 148.07169 33773 ft 377 kts 252°
2026-05-07 06:20 50.73360 147.99391 33770 ft 377 kts 252°
2026-05-07 06:20 50.71578 147.91620 33770 ft 376 kts 251°
2026-05-07 06:21 50.69788 147.83861 33773 ft 376 kts 251°
2026-05-07 06:21 50.67998 147.76106 33772 ft 376 kts 251°
2026-05-07 06:22 50.66199 147.68371 33768 ft 376 kts 251°
2026-05-07 06:22 50.63492 147.56759 33769 ft 376 kts 251°
2026-05-07 06:23 50.61697 147.49092 33766 ft 376 kts 251°
2026-05-07 06:23 50.59892 147.41374 33773 ft 376 kts 251°
2026-05-07 06:24 50.58074 147.33664 33773 ft 376 kts 251°
2026-05-07 06:24 50.56253 147.25967 33777 ft 375 kts 251°
2026-05-07 06:25 50.54430 147.18275 33776 ft 375 kts 251°
2026-05-07 06:25 50.52598 147.10594 33779 ft 375 kts 251°
2026-05-07 06:26 50.50764 147.02918 33772 ft 375 kts 251°
2026-05-07 06:26 50.48925 146.95260 33779 ft 375 kts 251°
2026-05-07 06:27 50.47080 146.87606 33780 ft 375 kts 251°
2026-05-07 06:27 50.45244 146.80012 33783 ft 375 kts 251°
2026-05-07 06:28 50.43394 146.72375 33782 ft 375 kts 251°
2026-05-07 06:28 50.41537 146.64745 33774 ft 374 kts 251°
2026-05-07 06:29 50.39671 146.57123 33780 ft 374 kts 251°
2026-05-07 06:29 50.37803 146.49505 33779 ft 374 kts 251°
2026-05-07 06:30 50.35940 146.41892 33785 ft 374 kts 251°
2026-05-07 06:30 50.34068 146.34288 33780 ft 374 kts 250°
2026-05-07 06:31 50.32189 146.26745 33784 ft 374 kts 250°
2026-05-07 06:31 50.30305 146.19161 33786 ft 374 kts 250°
2026-05-07 06:32 50.28422 146.11585 33783 ft 374 kts 250°
2026-05-07 06:32 50.26528 146.04023 33779 ft 373 kts 250°
2026-05-07 06:33 50.24631 145.96475 33788 ft 373 kts 250°
2026-05-07 06:33 50.22735 145.88937 33787 ft 373 kts 250°
2026-05-07 06:34 50.20830 145.81411 33786 ft 373 kts 250°
2026-05-07 06:34 50.18921 145.73904 33786 ft 372 kts 250°
2026-05-07 06:35 50.17019 145.66403 33789 ft 371 kts 250°
2026-05-07 06:35 50.15118 145.58915 33790 ft 371 kts 250°
2026-05-07 06:36 50.13204 145.51450 33789 ft 371 kts 250°
2026-05-07 06:36 50.11296 145.44051 33790 ft 370 kts 250°
2026-05-07 06:37 50.09378 145.36608 33790 ft 370 kts 250°
2026-05-07 06:37 50.07459 145.29177 33792 ft 370 kts 250°
2026-05-07 06:38 50.05529 145.21757 33791 ft 370 kts 250°
2026-05-07 06:38 50.03594 145.14343 33785 ft 370 kts 250°
2026-05-07 06:39 50.01665 145.06935 33786 ft 369 kts 250°
2026-05-07 06:39 49.99730 144.99539 33787 ft 369 kts 250°
2026-05-07 06:40 49.97792 144.92152 33788 ft 369 kts 250°
2026-05-07 06:40 49.95847 144.84769 33786 ft 369 kts 250°
2026-05-07 06:41 49.93911 144.77452 33795 ft 369 kts 250°
2026-05-07 06:41 49.91954 144.70087 33793 ft 369 kts 250°
2026-05-07 06:42 49.89999 144.62732 33794 ft 369 kts 250°
2026-05-07 06:42 49.88033 144.55394 33800 ft 369 kts 249°
2026-05-07 06:43 49.86064 144.48063 33797 ft 368 kts 249°
2026-05-07 06:43 49.84092 144.40740 33804 ft 368 kts 249°
2026-05-07 06:44 49.82121 144.33427 33802 ft 368 kts 249°
2026-05-07 06:44 49.80165 144.26175 33800 ft 367 kts 249°
2026-05-07 06:45 49.78188 144.18891 33802 ft 367 kts 249°
2026-05-07 06:45 49.76210 144.11619 33802 ft 366 kts 249°
2026-05-07 06:46 49.74226 144.04368 33801 ft 366 kts 249°
2026-05-07 06:46 49.72244 143.97122 33793 ft 366 kts 249°
2026-05-07 06:47 49.70259 143.89895 33793 ft 365 kts 249°
2026-05-07 06:47 49.68267 143.82677 33786 ft 365 kts 249°
2026-05-07 06:48 49.66270 143.75475 33783 ft 365 kts 249°
2026-05-07 06:48 49.64288 143.68332 33783 ft 364 kts 249°
2026-05-07 06:49 49.62295 143.61149 33780 ft 364 kts 249°
2026-05-07 06:49 49.60297 143.53981 33772 ft 364 kts 249°
2026-05-07 06:50 49.58292 143.46817 33771 ft 364 kts 249°
2026-05-07 06:50 49.56282 143.39667 33765 ft 364 kts 249°
2026-05-07 06:51 49.54268 143.32516 33767 ft 364 kts 249°
2026-05-07 06:51 49.52268 143.25420 33767 ft 364 kts 249°
2026-05-07 06:52 49.50244 143.18289 33762 ft 364 kts 249°
2026-05-07 06:52 49.48212 143.11155 33755 ft 364 kts 249°
2026-05-07 06:53 49.46181 143.04021 33756 ft 364 kts 249°
2026-05-07 06:53 49.44146 142.96892 33755 ft 364 kts 249°
2026-05-07 06:54 49.42103 142.89764 33755 ft 364 kts 249°
2026-05-07 06:54 49.40056 142.82644 33758 ft 365 kts 249°
2026-05-07 06:55 49.38023 142.75567 33760 ft 365 kts 249°
2026-05-07 06:55 49.35957 142.68449 33768 ft 365 kts 249°
2026-05-07 06:56 49.33894 142.61359 33779 ft 363 kts 249°
2026-05-07 06:56 49.31834 142.54292 33772 ft 363 kts 249°
2026-05-07 06:57 49.29779 142.47238 33789 ft 362 kts 249°
2026-05-07 06:57 49.27727 142.40200 33787 ft 362 kts 249°
2026-05-07 06:58 49.25666 142.33189 33790 ft 361 kts 248°
2026-05-07 06:58 49.23613 142.26232 33796 ft 361 kts 248°
2026-05-07 06:59 49.21552 142.19228 33798 ft 361 kts 248°
2026-05-07 06:59 49.19478 142.12229 33805 ft 361 kts 248°
2026-05-07 07:00 49.17398 142.05236 33808 ft 361 kts 248°
2026-05-07 07:00 49.15321 141.98242 33808 ft 361 kts 248°
2026-05-07 07:01 49.13243 141.91250 33811 ft 361 kts 248°
2026-05-07 07:01 49.11159 141.84277 33810 ft 361 kts 248°
2026-05-07 07:02 49.09070 141.77322 33817 ft 360 kts 248°
2026-05-07 07:02 49.06992 141.70421 33816 ft 360 kts 248°
2026-05-07 07:03 49.04902 141.63480 33822 ft 360 kts 248°
2026-05-07 07:03 49.02806 141.56556 33821 ft 360 kts 248°
2026-05-07 07:04 49.00715 141.49646 33825 ft 359 kts 248°
2026-05-07 07:04 48.98625 141.42744 33825 ft 359 kts 248°
2026-05-07 07:05 48.96537 141.35863 33827 ft 358 kts 248°
2026-05-07 07:05 48.94455 141.29009 33829 ft 357 kts 248°
2026-05-07 07:06 48.92365 141.22167 33833 ft 356 kts 248°
2026-05-07 07:06 48.90278 141.15351 33832 ft 355 kts 248°
2026-05-07 07:07 48.88187 141.08551 33832 ft 355 kts 248°
2026-05-07 07:07 48.86104 141.01817 33830 ft 354 kts 248°
2026-05-07 07:08 48.84016 140.95047 33833 ft 354 kts 248°
2026-05-07 07:08 48.81928 140.88283 33829 ft 354 kts 248°
2026-05-07 07:09 48.79830 140.81537 33833 ft 353 kts 248°
2026-05-07 07:09 48.77737 140.74798 33827 ft 353 kts 248°
2026-05-07 07:10 48.75640 140.68077 33823 ft 353 kts 247°
2026-05-07 07:10 48.73538 140.61369 33831 ft 352 kts 247°
2026-05-07 07:11 48.71434 140.54667 33830 ft 352 kts 247°
2026-05-07 07:11 48.69346 140.48020 33826 ft 352 kts 248°
2026-05-07 07:12 48.67247 140.41341 33826 ft 351 kts 248°
2026-05-07 07:12 48.65148 140.34667 33829 ft 351 kts 248°
2026-05-07 07:13 48.63047 140.28003 33828 ft 351 kts 248°
2026-05-07 07:13 48.60942 140.21359 33826 ft 351 kts 248°
2026-05-07 07:14 48.58427 140.15018 33817 ft 354 kts 240°
2026-05-07 07:14 48.55595 140.08931 33813 ft 354 kts 240°
2026-05-07 07:15 48.52757 140.02870 33804 ft 354 kts 240°
2026-05-07 07:15 48.49921 139.96819 33806 ft 353 kts 240°
2026-05-07 07:16 48.47104 139.90818 33798 ft 353 kts 240°
2026-05-07 07:16 48.44268 139.84786 33792 ft 352 kts 240°
2026-05-07 07:17 48.41446 139.78752 33792 ft 352 kts 240°
2026-05-07 07:17 48.38619 139.72724 33788 ft 352 kts 240°
2026-05-07 07:18 48.35793 139.66717 33792 ft 352 kts 240°
2026-05-07 07:18 48.32967 139.60724 33776 ft 351 kts 240°
2026-05-07 07:19 48.30136 139.54743 33779 ft 351 kts 240°
2026-05-07 07:19 48.27330 139.48809 33786 ft 351 kts 240°
2026-05-07 07:20 48.24501 139.42843 33785 ft 350 kts 240°
2026-05-07 07:20 48.21670 139.36892 33777 ft 351 kts 240°
2026-05-07 07:21 48.18832 139.30957 33780 ft 350 kts 240°
2026-05-07 07:21 48.16473 139.26029 33773 ft 350 kts 240°
2026-05-07 07:22 48.13639 139.20105 33769 ft 350 kts 240°
2026-05-07 07:22 48.10342 139.13238 33762 ft 349 kts 240°
2026-05-07 07:23 48.07964 139.08296 33763 ft 349 kts 240°
2026-05-07 07:23 48.05150 139.02452 33757 ft 348 kts 240°
2026-05-07 07:24 48.02308 138.96598 33810 ft 349 kts 239°
2026-05-07 07:24 48.00878 138.93664 33932 ft 350 kts 239°
2026-05-07 07:24 47.99440 138.90718 34046 ft 352 kts 239°
2026-05-07 07:25 47.96546 138.84798 34322 ft 354 kts 239°
2026-05-07 07:25 47.95096 138.81826 34438 ft 355 kts 239°
2026-05-07 07:25 47.93643 138.78845 34554 ft 355 kts 239°
2026-05-07 07:26 47.92189 138.75865 34665 ft 356 kts 238°
2026-05-07 07:26 47.90729 138.72883 34786 ft 357 kts 238°
2026-05-07 07:26 47.89260 138.69889 34898 ft 358 kts 238°
2026-05-07 07:26 47.87803 138.66926 35014 ft 360 kts 238°
2026-05-07 07:27 47.86317 138.63911 35137 ft 361 kts 238°
2026-05-07 07:27 47.84832 138.60903 35252 ft 361 kts 238°
2026-05-07 07:27 47.83347 138.57894 35371 ft 361 kts 238°
2026-05-07 07:27 47.81858 138.54881 35491 ft 362 kts 238°
2026-05-07 07:28 47.80364 138.51864 35631 ft 362 kts 238°
2026-05-07 07:28 47.78871 138.48846 35738 ft 363 kts 238°
2026-05-07 07:28 47.77372 138.45808 35756 ft 366 kts 238°
2026-05-07 07:29 47.74336 138.39663 35754 ft 369 kts 237°
2026-05-07 07:29 47.71288 138.33527 35753 ft 369 kts 237°
2026-05-07 07:30 47.68236 138.27402 35751 ft 369 kts 237°
2026-05-07 07:30 47.65180 138.21286 35768 ft 370 kts 237°
2026-05-07 07:31 47.62143 138.15202 35789 ft 369 kts 237°
2026-05-07 07:31 47.59088 138.09094 35792 ft 369 kts 237°
2026-05-07 07:32 47.56033 138.03001 35788 ft 369 kts 237°
2026-05-07 07:32 47.52971 137.96914 35790 ft 369 kts 237°
2026-05-07 07:33 47.49908 137.90841 35788 ft 368 kts 237°
2026-05-07 07:33 47.46840 137.84772 35790 ft 368 kts 237°
2026-05-07 07:34 47.43769 137.78710 35787 ft 368 kts 237°
2026-05-07 07:34 47.40716 137.72693 35792 ft 369 kts 237°
2026-05-07 07:35 47.37635 137.66647 35789 ft 368 kts 237°
2026-05-07 07:35 47.34555 137.60610 35788 ft 369 kts 237°
2026-05-07 07:36 47.31461 137.54578 35789 ft 369 kts 237°
2026-05-07 07:36 47.28364 137.48559 35791 ft 368 kts 237°
2026-05-07 07:37 47.25278 137.42553 35792 ft 367 kts 237°
2026-05-07 07:37 47.22191 137.36568 35792 ft 367 kts 236°
2026-05-07 07:38 47.19096 137.30606 35794 ft 366 kts 236°
2026-05-07 07:38 47.16031 137.24705 35793 ft 365 kts 236°
2026-05-07 07:39 47.12949 137.18774 35794 ft 365 kts 236°
2026-05-07 07:39 47.09872 137.12860 35795 ft 365 kts 236°
2026-05-07 07:40 47.06792 137.06939 35790 ft 365 kts 236°
2026-05-07 07:40 47.03710 137.01034 35793 ft 364 kts 236°
2026-05-07 07:41 47.00626 136.95150 35797 ft 364 kts 236°
2026-05-07 07:41 46.97558 136.89304 35794 ft 363 kts 236°
2026-05-07 07:42 46.94486 136.83451 35797 ft 363 kts 236°
2026-05-07 07:42 46.91404 136.77609 35786 ft 363 kts 236°
2026-05-07 07:43 46.88327 136.71776 35786 ft 363 kts 236°
2026-05-07 07:43 46.85244 136.65947 35776 ft 362 kts 235°
2026-05-07 07:44 46.82159 136.60132 35786 ft 362 kts 236°
2026-05-07 07:44 46.79078 136.54329 35782 ft 362 kts 236°
2026-05-07 07:45 46.76022 136.48574 35788 ft 361 kts 235°
2026-05-07 07:45 46.72942 136.42796 35795 ft 361 kts 235°
2026-05-07 07:46 46.69861 136.37027 35790 ft 360 kts 235°
2026-05-07 07:46 46.66790 136.31277 35802 ft 360 kts 235°
2026-05-07 07:47 46.63717 136.25532 35794 ft 360 kts 235°
2026-05-07 07:47 46.60633 136.19807 35796 ft 360 kts 235°
2026-05-07 07:48 46.57546 136.14078 35797 ft 360 kts 235°
2026-05-07 07:48 46.54484 136.08393 35795 ft 360 kts 235°
2026-05-07 07:49 46.51394 136.02675 35793 ft 360 kts 235°
2026-05-07 07:49 46.48303 135.96963 35788 ft 360 kts 235°
2026-05-07 07:50 46.45207 135.91247 35800 ft 360 kts 235°
2026-05-07 07:50 46.42118 135.85552 35796 ft 359 kts 235°
2026-05-07 07:51 46.39025 135.79869 35793 ft 359 kts 235°
2026-05-07 07:51 46.35926 135.74193 35795 ft 359 kts 234°
2026-05-07 07:52 46.32884 135.68473 35796 ft 359 kts 236°
2026-05-07 07:52 46.29918 135.62674 35801 ft 359 kts 236°
2026-05-07 07:53 46.26954 135.56879 35796 ft 358 kts 236°
2026-05-07 07:53 46.23972 135.51108 35805 ft 358 kts 236°
2026-05-07 07:54 46.20980 135.45352 35805 ft 358 kts 236°
2026-05-07 07:54 46.18001 135.39649 35797 ft 358 kts 236°
2026-05-07 07:55 46.15000 135.33907 35805 ft 358 kts 236°
2026-05-07 07:55 46.12008 135.28169 35810 ft 358 kts 236°
2026-05-07 07:56 46.09010 135.22446 35813 ft 358 kts 236°
2026-05-07 07:56 46.06006 135.16733 35818 ft 358 kts 236°
2026-05-07 07:57 46.03004 135.11033 35819 ft 357 kts 235°
2026-05-07 07:57 46.00002 135.05345 35818 ft 357 kts 235°
2026-05-07 07:58 45.97017 134.99705 35819 ft 357 kts 235°
2026-05-07 07:58 45.94012 134.94029 35819 ft 357 kts 235°
2026-05-07 07:59 45.90968 134.88399 35819 ft 358 kts 231°
2026-05-07 07:59 45.86949 134.84053 35812 ft 368 kts 217°
2026-05-07 08:00 45.82488 134.80429 35816 ft 368 kts 216°
2026-05-07 08:00 45.78018 134.76833 35819 ft 368 kts 217°
2026-05-07 08:01 45.73561 134.73237 35821 ft 368 kts 217°
2026-05-07 08:01 45.69133 134.69667 35824 ft 367 kts 217°
2026-05-07 08:02 45.64692 134.66090 35827 ft 366 kts 217°
2026-05-07 08:02 45.60261 134.62524 35830 ft 366 kts 217°
2026-05-07 08:03 45.55820 134.58971 35828 ft 366 kts 216°
2026-05-07 08:03 45.51390 134.55429 35836 ft 365 kts 217°
2026-05-07 08:04 45.46966 134.51890 35830 ft 365 kts 217°
2026-05-07 08:04 45.42542 134.48357 35833 ft 364 kts 217°
2026-05-07 08:05 45.38151 134.44872 35834 ft 364 kts 216°
2026-05-07 08:05 45.33727 134.41362 35831 ft 364 kts 216°
2026-05-07 08:06 45.29307 134.37865 35830 ft 363 kts 217°
2026-05-07 08:06 45.24897 134.34371 35830 ft 363 kts 217°
2026-05-07 08:07 45.20486 134.30880 35825 ft 363 kts 217°
2026-05-07 08:07 45.16075 134.27403 35830 ft 362 kts 217°
2026-05-07 08:08 45.11673 134.23934 35831 ft 362 kts 217°
2026-05-07 08:08 45.07275 134.20473 35831 ft 361 kts 217°
2026-05-07 08:09 45.02881 134.17023 35829 ft 361 kts 217°
2026-05-07 08:09 44.98502 134.13595 35831 ft 360 kts 217°
2026-05-07 08:10 44.94147 134.10188 35835 ft 360 kts 217°
2026-05-07 08:10 44.89771 134.06770 35831 ft 360 kts 217°
2026-05-07 08:11 44.85397 134.03354 35832 ft 359 kts 217°
2026-05-07 08:11 44.81036 133.99931 35830 ft 358 kts 217°
2026-05-07 08:12 44.76741 133.96401 35833 ft 357 kts 218°
2026-05-07 08:12 44.72458 133.92857 35827 ft 357 kts 218°
2026-05-07 08:13 44.68165 133.89346 35827 ft 357 kts 218°
2026-05-07 08:13 44.63878 133.85841 35825 ft 356 kts 218°
2026-05-07 08:14 44.59596 133.82352 35826 ft 356 kts 218°
2026-05-07 08:14 44.55317 133.78884 35825 ft 355 kts 217°
2026-05-07 08:15 44.51071 133.75447 35824 ft 355 kts 218°
2026-05-07 08:15 44.46803 133.71986 35826 ft 355 kts 218°
2026-05-07 08:16 44.42531 133.68526 35825 ft 354 kts 217°
2026-05-07 08:16 44.38292 133.65117 35105 ft 347 kts 218°
2026-05-07 08:16 44.36202 133.63439 34184 ft 345 kts 218°
2026-05-07 08:17 44.34136 133.61782 33251 ft 341 kts 218°
2026-05-07 08:17 44.32080 133.60134 32092 ft 340 kts 218°
2026-05-07 08:17 44.30009 133.58462 30756 ft 349 kts 217°
2026-05-07 08:17 44.27915 133.56773 30157 ft 344 kts 217°